Kake, AK

10:23 PM AKDT on October 18, 2017 (GMT -0800)
Kake

Weather History for PAFE - November, 2012

Change the Weather History Date:

Thursday, November 8, 2012

  Actual Average Record
Temperature  
Mean Temperature 30 °F -  
Max Temperature 35 °F 40 °F 51 °F (2002)
Min Temperature 26 °F 33 °F 26 °F (2006)
Degree Days  
Heating Degree Days 34    
Moisture  
Dew Point 23 °F    
Average Humidity 71    
Maximum Humidity 86    
Minimum Humidity 56    
Precipitation  
Precipitation 0.00 in - - ()
Sea Level Pressure  
Sea Level Pressure 30.35 in    
Wind  
Wind Speed 4 mph (NE)    
Max Wind Speed 10 mph    
Max Gust Speed -    
Visibility 10 miles    
Events      
Averages and records for this station are not official NWS values.
T = Trace of Precipitation, MM = Missing Value Source: NWS Daily Summary

Daily Weather History Graph

Daily Weather History Graph

Search for Another Location

Airport or City:

Trip Planner

Search our weather history database for the weather conditions in past years. The results will help you decide how hot, cold, wet, or windy it might be!

Date:

Astronomy

Nov. 08, 2012 Rise Set
Actual Time 7:23 AM AKST 3:55 PM AKST
Civil Twilight 6:40 AM AKST 4:37 PM AKST
Nautical Twilight 5:54 AM AKST 5:23 PM AKST
Astronomical Twilight 5:09 AM AKST 6:07 PM AKST
Moon 12:19 AM AKST (11/8) 1:38 PM AKST (11/8)
Length of Visible Light 9h 56m
Length of Day
8h 32m
Waning Crescent, 31% of the Moon is Illuminated
Nov 8
Waning Crescent
Nov 13
New
Nov 20
First Quarter
Nov 28
Full
Dec 6
Last Quarter

Hourly Weather History & Observations

Time (AKST) Temp. Windchill Dew Point Humidity Pressure Visibility Wind Dir Wind Speed Gust Speed Precip Events Conditions
12:16 AM 28.4 °F 24.6 °F 24.8 °F 86% 30.32 in 10.0 mi NE 3.5 mph - N/A   Clear
12:36 AM 28.4 °F - 24.8 °F 86% 30.33 in 10.0 mi Calm Calm - N/A   Clear
12:56 AM 30.2 °F 26.7 °F 26.6 °F 86% 30.33 in 10.0 mi NE 3.5 mph - N/A   Clear
1:16 AM 30.2 °F 25.4 °F 26.6 °F 86% 30.33 in 10.0 mi NE 4.6 mph - N/A   Clear
1:36 AM 32.0 °F 27.5 °F 26.6 °F 80% 30.33 in 10.0 mi NE 4.6 mph - N/A   Clear
1:56 AM 33.8 °F 30.8 °F 24.8 °F 70% 30.34 in 10.0 mi North 3.5 mph - N/A   Clear
2:16 AM 32.0 °F - 24.8 °F 75% 30.34 in 10.0 mi Calm Calm - N/A   Clear
2:36 AM 32.0 °F 28.7 °F 24.8 °F 75% 30.34 in 10.0 mi North 3.5 mph - N/A   Clear
2:56 AM 30.2 °F 26.7 °F 24.8 °F 80% 30.35 in 10.0 mi North 3.5 mph - N/A   Clear
3:16 AM 28.4 °F - 24.8 °F 86% 30.34 in 10.0 mi Calm Calm - N/A   Clear
3:36 AM 30.2 °F 25.4 °F 24.8 °F 80% 30.34 in 10.0 mi NNE 4.6 mph - N/A   Clear
3:56 AM 30.2 °F 26.7 °F 24.8 °F 80% 30.35 in 10.0 mi NNE 3.5 mph - N/A   Clear
4:16 AM 28.4 °F 22.2 °F 24.8 °F 86% 30.35 in 10.0 mi NE 5.8 mph - N/A   Clear
4:36 AM 28.4 °F 23.3 °F 23.0 °F 80% 30.35 in 10.0 mi NE 4.6 mph - N/A   Clear
4:56 AM 28.4 °F 24.6 °F 24.8 °F 86% 30.35 in 10.0 mi NE 3.5 mph - N/A   Clear
5:16 AM 30.2 °F - 23.0 °F 75% 30.35 in 10.0 mi Calm Calm - N/A   Clear
5:36 AM 28.4 °F 24.6 °F 23.0 °F 80% 30.36 in 10.0 mi NNE 3.5 mph - N/A   Clear
5:56 AM 28.4 °F - 23.0 °F 80% 30.36 in 10.0 mi Calm Calm - N/A   Clear
6:16 AM 28.4 °F 23.3 °F 23.0 °F 80% 30.36 in 10.0 mi NE 4.6 mph - N/A   Clear
6:36 AM 28.4 °F 23.3 °F 23.0 °F 80% 30.36 in 10.0 mi NE 4.6 mph - N/A   Clear
6:56 AM 28.4 °F - 21.2 °F 74% 30.36 in 10.0 mi Calm Calm - N/A   Clear
7:16 AM 26.6 °F 21.2 °F 21.2 °F 80% 30.37 in 10.0 mi NE 4.6 mph - N/A   Clear
7:36 AM 26.6 °F 22.6 °F 21.2 °F 80% 30.37 in 10.0 mi ENE 3.5 mph - N/A   Clear
7:56 AM 26.6 °F 21.2 °F 23.0 °F 86% 30.37 in 10.0 mi ENE 4.6 mph - N/A   Clear
8:16 AM 26.6 °F 19.1 °F 21.2 °F 80% 30.37 in 10.0 mi ENE 6.9 mph - N/A   Clear
8:36 AM 28.4 °F 23.3 °F 23.0 °F 80% 30.37 in 10.0 mi ENE 4.6 mph - N/A   Clear
8:56 AM 30.2 °F 25.4 °F 24.8 °F 80% 30.37 in 10.0 mi NE 4.6 mph - N/A   Clear
9:16 AM 33.8 °F - 23.0 °F 65% 30.37 in 10.0 mi Calm Calm - N/A   Clear
9:36 AM 33.8 °F 28.6 °F 23.0 °F 65% 30.38 in 10.0 mi NNE 5.8 mph - N/A   Clear
9:56 AM 33.8 °F 30.8 °F 24.8 °F 70% 30.37 in 10.0 mi NE 3.5 mph - N/A   Clear
10:16 AM 35.6 °F 32.8 °F 24.8 °F 65% 30.37 in 10.0 mi NE 3.5 mph - N/A   Clear
10:36 AM 35.6 °F 32.8 °F 23.0 °F 60% 30.37 in 10.0 mi ENE 3.5 mph - N/A   Clear
10:56 AM 35.6 °F 29.9 °F 23.0 °F 60% 30.37 in 10.0 mi ENE 6.9 mph - N/A   Clear
11:16 AM 35.6 °F 28.6 °F 23.0 °F 60% 30.37 in 10.0 mi East 9.2 mph - N/A   Clear
11:36 AM 35.6 °F 29.9 °F 23.0 °F 60% 30.37 in 10.0 mi ENE 6.9 mph - N/A   Clear
11:56 AM 35.6 °F 28.0 °F 23.0 °F 60% 30.37 in 10.0 mi East 10.4 mph - N/A   Clear
12:16 PM 35.6 °F 28.6 °F 23.0 °F 60% 30.37 in 10.0 mi ENE 9.2 mph - N/A   Clear
12:36 PM 35.6 °F 28.6 °F 23.0 °F 60% 30.37 in 10.0 mi East 9.2 mph - N/A   Clear
12:56 PM 35.6 °F 29.9 °F 21.2 °F 56% 30.37 in 10.0 mi East 6.9 mph - N/A   Clear
1:16 PM 35.6 °F 29.9 °F 23.0 °F 60% 30.37 in 10.0 mi East 6.9 mph - N/A   Clear
1:36 PM 35.6 °F 30.7 °F 23.0 °F 60% 30.37 in 10.0 mi ENE 5.8 mph - N/A   Clear
1:56 PM 35.6 °F 32.8 °F 21.2 °F 56% 30.37 in 10.0 mi ENE 3.5 mph - N/A   Clear
2:16 PM 35.6 °F 30.7 °F 23.0 °F 60% 30.36 in 10.0 mi NE 5.8 mph - N/A   Clear
2:36 PM 35.6 °F 30.7 °F 23.0 °F 60% 30.36 in 10.0 mi ENE 5.8 mph - N/A   Clear
2:56 PM 35.6 °F 30.7 °F 23.0 °F 60% 30.36 in 10.0 mi ENE 5.8 mph - N/A   Clear
3:16 PM 35.6 °F 29.9 °F 23.0 °F 60% 30.36 in 10.0 mi ENE 6.9 mph - N/A   Clear
3:36 PM 33.8 °F 28.6 °F 23.0 °F 65% 30.35 in 10.0 mi ENE 5.8 mph - N/A   Clear
3:56 PM 33.8 °F 28.6 °F 21.2 °F 60% 30.35 in 10.0 mi ENE 5.8 mph - N/A   Clear
4:16 PM 32.0 °F 27.5 °F 21.2 °F 64% 30.35 in 10.0 mi NE 4.6 mph - N/A   Clear
4:36 PM 32.0 °F 27.5 °F 21.2 °F 64% 30.35 in 10.0 mi NNE 4.6 mph - N/A   Clear
4:56 PM 32.0 °F 27.5 °F 21.2 °F 64% 30.35 in 10.0 mi NNE 4.6 mph - N/A   Clear
5:16 PM 32.0 °F 26.4 °F 21.2 °F 64% 30.35 in 10.0 mi NNE 5.8 mph - N/A   Clear
5:36 PM 30.2 °F 23.4 °F 21.2 °F 69% 30.34 in 10.0 mi NE 6.9 mph - N/A   Clear
5:56 PM 30.2 °F 24.3 °F 21.2 °F 69% 30.34 in 10.0 mi NE 5.8 mph - N/A   Clear
6:16 PM 30.2 °F 25.4 °F 21.2 °F 69% 30.34 in 10.0 mi NE 4.6 mph - N/A   Clear
6:36 PM 30.2 °F 22.6 °F 21.2 °F 69% 30.34 in 10.0 mi NE 8.1 mph - N/A   Clear
6:56 PM 30.2 °F 23.4 °F 21.2 °F 69% 30.34 in 10.0 mi NE 6.9 mph - N/A   Clear
7:16 PM 30.2 °F 25.4 °F 21.2 °F 69% 30.34 in 10.0 mi NE 4.6 mph - N/A   Clear
7:36 PM 30.2 °F 24.3 °F 21.2 °F 69% 30.33 in 10.0 mi ENE 5.8 mph - N/A   Clear
7:56 PM 30.2 °F 24.3 °F 21.2 °F 69% 30.34 in 10.0 mi NE 5.8 mph - N/A   Clear
8:16 PM 30.2 °F 25.4 °F 21.2 °F 69% 30.34 in 10.0 mi NNE 4.6 mph - N/A   Clear
8:36 PM 30.2 °F - 21.2 °F 69% 30.34 in 10.0 mi Calm Calm - N/A   Clear
8:56 PM 30.2 °F 23.4 °F 21.2 °F 69% 30.34 in 10.0 mi NE 6.9 mph - N/A   Clear
9:16 PM 30.2 °F 22.6 °F 21.2 °F 69% 30.34 in 10.0 mi NE 8.1 mph - N/A   Clear
9:36 PM 30.2 °F 23.4 °F 21.2 °F 69% 30.33 in 10.0 mi NE 6.9 mph - N/A   Clear
9:56 PM 30.2 °F 26.7 °F 19.4 °F 64% 30.33 in 10.0 mi NE 3.5 mph - N/A   Clear
10:16 PM 30.2 °F 25.4 °F 19.4 °F 64% 30.33 in 10.0 mi NNE 4.6 mph - N/A   Clear
10:36 PM 30.2 °F 22.6 °F 19.4 °F 64% 30.33 in 10.0 mi ENE 8.1 mph - N/A   Clear
10:56 PM 28.4 °F 21.2 °F 19.4 °F 69% 30.33 in 10.0 mi NE 6.9 mph - N/A   Clear
11:16 PM 28.4 °F 23.3 °F 19.4 °F 69% 30.33 in 10.0 mi NNE 4.6 mph - N/A   Clear
11:36 PM 28.4 °F 24.6 °F 19.4 °F 69% 30.33 in 10.0 mi NNE 3.5 mph - N/A   Clear
11:56 PM 28.4 °F 24.6 °F 19.4 °F 69% 30.33 in 10.0 mi NNE 3.5 mph - N/A   Clear